Regional Weather Roundup
Issued by NWS Albany, NY

Current Version | Previous Version | Text Only | Print | Product List | Glossary On
Versions: 1 2 3 4 5 6 7 8 9 10 11 12 13 14 15 16 17 18 19 20 21 22 23 24 25 26 27 28 29 30 31 32 33 34 35 36 37 38 39 40 41 42 43 44 45 46 47 48 49 50
000
ASUS41 KALY 280810
RWRALY

NEW YORK STATE HOURLY WEATHER ROUNDUP
NATIONAL WEATHER SERVICE ALBANY NY
400 AM EDT WED JUN 28 2017

NOTE: "FAIR" INDICATES FEW OR NO CLOUDS BELOW 12,000 FEET WITH NO
SIGNIFICANT WEATHER AND/OR NO OBSTRUCTIONS TO VISIBILITY.

NYZ032-033-038>043-046>054-057>066-NYZ062>081-082-084-280900-
EAST


CITY           SKY/WX    TMP DP  RH WIND       PRES   REMARKS
ALBANY         PTCLDY    55  51  86 CALM      30.03R
GLENS FALLS    CLEAR     51  48  89 CALM      29.99S
POUGHKEEPSIE   CLEAR     54  50  86 CALM      30.04R
NEWBURGH       CLEAR     55  52  88 W12       30.06R
MONTGOMERY     CLEAR     50  48  93 SW3       30.06R
WHITE PLAINS   CLEAR     60  50  69 W7        30.04R
ISLIP          CLEAR     59  56  89 W6        30.04R
NEW YORK CITY  CLEAR     65  52  62 NW12      30.05R
CENTRAL PARK   CLEAR     63  50  62 CALM      30.08R
$$

NYZ005>009-017-018-044>046-055-056-280900-
CENTRAL


CITY           SKY/WX    TMP DP  RH WIND       PRES   REMARKS
FULTON         CLEAR     54  50  86 SW5       30.03R
SYRACUSE       PTCLDY    55  52  89 SW8       30.03R
ROME           CLOUDY    55  54  96 NW3       30.04R
ELMIRA         CLEAR     50  48  93 W6        30.08R
BINGHAMTON     CLEAR     49  47  93 W7        30.07R
MONTICELLO     CLEAR     50  48  93 MISG      30.08S
$$

NYZ026>034-041>043-087-280900-
NORTH


CITY           SKY/WX    TMP DP  RH WIND       PRES   REMARKS
WATERTOWN      PTCLDY    53  52  96 SW5       30.00R
FORT DRUM      NOT AVBL
MASSENA        PTCLDY    54  54 100 SW7       29.97R
SARANAC LAKE   PTCLDY    51  51 100 SW6       29.97R
PLATTSBURGH    CLOUDY    54  53  97 CALM      29.94S
$$

NYZ001>004-010>016-019>021-085-280900-
WEST


CITY           SKY/WX    TMP DP  RH WIND       PRES   REMARKS
NIAGARA FALLS  CLOUDY    58  50  75 SW7       30.03S
BUFFALO        CLOUDY    57  51  80 S7        30.05R
DUNKIRK        CLOUDY    57  46  66 S8        30.06S
JAMESTOWN      CLOUDY    52  45  76 SW6       30.09S
WELLSVILLE     CLEAR     51  44  77 W5        30.11S
ROCHESTER      PTCLDY    53  51  93 SW7       30.04S
PENN YAN       CLEAR     56  49  77 SW7       30.06S
$$

             KEY
       WCI = WIND CHILL INDEX
       VSB = VISIBILITY
       HX  = HEAT INDEX
$$



USA.gov is the U.S. government's official web portal to all federal, state and local government web resources and services.